Regional Weather Roundup
Issued by NWS Sterling, VA

Home | Current Version | Previous Version | Text Only | Print | Product List | Glossary On
Versions: 1 2 3 4 5 6 7 8 9 10 11 12 13 14 15 16 17 18 19 20 21 22 23 24 25 26 27 28 29 30 31 32 33 34 35 36 37 38 39 40 41 42 43 44 45 46 47 48 49 50
000
ASUS41 KLWX 251810
RWRLWX

REGIONAL WEATHER ROUNDUP
NATIONAL WEATHER SERVICE BALTIMORE MD/WASHINGTON DC
100 PM EST SUN JAN 25 2015

Note: "FAIR" indicates few or no clouds below 12,000 feet
with no significant weather and/or obstructions to visibility.
 TC=TEMPERATURE CELSIUS

 * =Non NWS site. Station does not report precipitation (e.g. rain,
    snow, etc.), thunder, or fog.

DCZ001-MDZ009-015-VAZ040>042-051-053>054-251900-
WASHINGTON METRO

CITY           SKY/WX    TMP DP  RH WIND       PRES   REMARKS
WASHINGTON NAT CLOUDY    48  30  49 S8        29.84F
DULLES         CLOUDY    45  31  58 S8        29.83F
ANDREWS AFB    CLOUDY    48  31  52 S6        29.82F
FT BELVOIR     CLOUDY    47  30  51 VRB6      29.84F
QUANTICO       CLOUDY    42  34  73 S9        29.86F
COLLEGE PARK*  CLOUDY    50  30  46 W8        29.83F
LEESBURG*      CLOUDY    45  34  65 W5        29.83F
MANASSAS*      PTSUNNY   46  34  61 MISG      29.83F
GAITHERSBURG*  CLOUDY    45  28  53 W7        29.85S

$$

MDZ006>007-011-014-251900-
BALTIMORE METRO

CITY           SKY/WX    TMP DP  RH WIND       PRES   REMARKS
BWI AIRPORT    CLOUDY    49  31  49 W6        29.82F
MD SCIENCE CTR   N/A     47  30  51 MISG      29.83F
MARTIN STATE   PTSUNNY   48  34  57 W12       29.84F
ANNAPOLIS      CLOUDY    48  29  47 W8        29.83S
FORT MEADE*    CLOUDY    48  32  53 W8        29.85F

$$

MDZ012-015-019>023-251900-
MARYLAND EASTERN SHORE

CITY           SKY/WX    TMP DP  RH WIND       PRES   REMARKS
OCEAN CITY     SUNNY     48  30  49 W14       29.86F
SALISBURY      CLOUDY    51  32  48 W7        29.86F
BAY BRIDGE AP*   N/A     46  30  53 CALM      29.84S
CAMBRIDGE*     PTSUNNY   48  32  53 SW5       29.85F
EASTON*        PTSUNNY   48  32  53 SW13      29.89S

$$

MDZ017>025-251900-
SOUTHERN MARYLAND

CITY           SKY/WX    TMP DP  RH WIND       PRES   REMARKS
PATUXENT RIVER PTSUNNY   48  29  47 SW8       29.84F
ST INIGOES     MOSUNNY   47  31  53 SW6       29.85F
LEONARDTOWN*   MOSUNNY   46  30  53 W7        29.85F

$$

MDZ003>005-251900-
NORTH CENTRAL MARYLAND

CITY           SKY/WX    TMP DP  RH WIND       PRES   REMARKS
FREDERICK*     CLOUDY    46  28  49 W9          N/A
HAGERSTOWN APT CLOUDY    42  29  59 SW5       29.80F
WESTMINSTER*   CLOUDY    43  34  70 W8        29.80S

$$

MDZ501>502-251900-
WESTERN MARYLAND

CITY           SKY/WX    TMP DP  RH WIND       PRES   REMARKS
OAKLAND*       CLOUDY    32 N/A N/A SW3       29.72F FOG
CUMBERLAND*    CLOUDY    45  32  61 W6        29.83F

$$

VAZ025>031-251900-
SHENANDOAH VALLEY

CITY           SKY/WX    TMP DP  RH WIND       PRES   REMARKS
WINCHESTER*    CLOUDY    43  28  56 SW7       29.81S
FRONT ROYAL*   CLOUDY    41  32  70 SW5       29.81S
LURAY*         CLOUDY    43  34  70 SW6       29.81F
NEW MARKET*    CLOUDY    42  32  66 SW6       29.80F
STAUNTON*      CLOUDY    42  31  64 SW6       29.83F
WAYNESBORO*    CLOUDY    40  31  68 W3        29.81F

$$

WVZ021-048>050-054>055-251900-
EASTERN WEST VIRGINIA PANHANDLE

CITY           SKY/WX    TMP DP  RH WIND       PRES   REMARKS
MARTINSBURG    CLOUDY    46  30  53 S3        29.80F
PETERSBURG*    CLOUDY    47  30  51 S6        29.78F

$$

VAZ036>039-050-251900-
CENTRAL FOOTHILLS

CITY           SKY/WX    TMP DP  RH WIND       PRES   REMARKS
CHARLOTTESVILL CLOUDY    43  32  65 S10       29.83F
CULPEPER*      CLOUDY    45  32  61 S3        29.84F
ORANGE*        CLOUDY    45  34  65 S6        29.86S
GORDONSVILLE*  FAIR      43  32  63 SW7       29.84S
WARRENTON*     CLOUDY    46  36  70 SW7       29.84S

$$

VAZ055>057-251900-
NORTH AND CENTRAL PIEDMONT

CITY           SKY/WX    TMP DP  RH WIND       PRES   REMARKS
FREDERICKSBRG* CLOUDY    50  33  51 S7        29.84F
STAFFORD*      CLOUDY    47  29  51 CALM      29.88F

$$

NCZ024-NYZ072-PAZ021-071-VAZ022-071-251900-
OTHER REGIONAL OBSERVATIONS

CITY           SKY/WX    TMP DP  RH WIND       PRES   REMARKS
NEW YORK CITY  PTSUNNY   42  14  32 VRB6G23   29.79R
PHILADELPHIA   PTSUNNY   46  29  51 NW13G21   29.81F
PITTSBURGH     LGT SNOW  35  32  88 CALM      29.78F FOG
ROANOKE        PTSUNNY   46  30  53 S3        29.85F
RICHMOND       MOSUNNY   51  32  48 S7        29.87F
RALEIGH        MOSUNNY   52  32  46 SW8       29.91F

$$

ANZ530>537-251900-
MARINE OBSERVATIONS

STATION/POSITION TIME  TEMP    WIND        PRES
                       AIR SEA DIR/SP/G
                 (UTC) (F)     (DEG/KT/KT) (MB)
THOMAS PT LIGHT  1800   40 37  170/  8/  9 1011.4F
BALT KEY BRIDGE  1800   45     260/ 12/ 14 1009.8R
COVE POINT       1800   46     270/  9/ 12 1010.9F
LEWISETTA        1800   47 39  220/  5/  5 1010.9F
SOLOMONS ISLAND  1800      38                N/A
PINEY POINT      1800          240/  2/  4   N/A

$$




USA.gov is the U.S. government's official web portal to all federal, state and local government web resources and services.